Weather History for Grant County, OR

Change the Weather History Date:

Saturday, August 16, 2014

  Actual Average (KBNO) Record (KBNO)
Temperature  
Mean Temperature 70 °F 65 °F  
Max Temperature 88 °F 85 °F 97 °F (2008)
Min Temperature 54 °F 45 °F 34 °F (1988)
Degree Days  
Heating Degree Days 0 2  
Month to date heating degree days 25  
Since 1 June heating degree days 301  
Since 1 July heating degree days 83  
Cooling Degree Days 6 2  
Month to date cooling degree days 52  
Year to date cooling degree days 184  
Since 1 June cooling degree days 181  
Growing Degree Days 20 (Base 50)    
Moisture  
Dew Point 47 °F    
Average Humidity 48    
Maximum Humidity 78    
Minimum Humidity 18    
Precipitation  
Precipitation 0.00 in 0.01 in 0.16 in (1992)
Month to date precipitation 0.18  
Year to date precipitation 6.80  
Sea Level Pressure  
Sea Level Pressure 30.13 in    
Wind  
Wind Speed 7 mph (NNE)    
Max Wind Speed 13 mph    
Max Gust Speed 16 mph    
Visibility 10 miles    
Events      
T = Trace of Precipitation, MM = Missing Value Source: NWS Daily Summary

Daily Weather History Graph

Daily Weather History Graph

Search for Another Location

Airport:

Trip Planner

Search our weather history database for the weather conditions in past years. The results will help you decide how hot, cold, wet, or windy it might be!

Date:

Astronomy

Aug. 16, 2014 Rise Set
Actual Time 6:00 AM PDT 7:59 PM PDT
Civil Twilight 5:28 AM PDT 8:30 PM PDT
Nautical Twilight 4:50 AM PDT 9:08 PM PDT
Astronomical Twilight 4:07 AM PDT 9:51 PM PDT
Moon 11:28 PM PDT (8/16) 1:08 PM PDT (8/16)
Length of Visible Light 15h 01m
Length of Day
13h 59m
Waning Gibbous, 58% of the Moon is Illuminated
Aug 16
Waning Gibbous
Aug 17
Last Quarter
Aug 25
New
Sep 2
First Quarter
Sep 8
Full

Hourly Weather History & Observations

Time (PDT) Temp. Dew Point Humidity Pressure Visibility Wind Dir Wind Speed Gust Speed Precip Events Conditions
12:15 AM 61.7 °F 49.6 °F 65% 30.12 in 10.0 mi East 4.6 mph - N/A   Scattered Clouds
12:35 AM 60.8 °F 50.0 °F 68% 30.12 in 10.0 mi East 8.1 mph - N/A   Scattered Clouds
12:55 AM 59.7 °F 49.3 °F 68% 30.12 in 10.0 mi East 6.9 mph - N/A   Clear
1:15 AM 59.4 °F 49.5 °F 70% 30.12 in 10.0 mi East 9.2 mph - N/A   Clear
1:35 AM 58.5 °F 48.9 °F 71% 30.13 in 10.0 mi East 8.1 mph - N/A   Clear
1:55 AM 57.4 °F 48.6 °F 72% 30.13 in 10.0 mi East 9.2 mph - N/A   Clear
2:15 AM 57.2 °F 48.4 °F 72% 30.13 in 10.0 mi ESE 9.2 mph - N/A   Clear
2:35 AM 56.5 °F 48.2 °F 74% 30.13 in 10.0 mi East 6.9 mph - N/A   Clear
2:55 AM 55.8 °F 48.2 °F 76% 30.14 in 10.0 mi SE 4.6 mph - N/A   Clear
3:15 AM 55.2 °F 48.2 °F 77% 30.14 in 10.0 mi ESE 8.1 mph - N/A   Clear
3:35 AM 55.4 °F 48.0 °F 76% 30.14 in 10.0 mi ESE 6.9 mph - N/A   Clear
3:55 AM 55.8 °F 47.8 °F 75% 30.14 in 10.0 mi ESE 8.1 mph - N/A   Clear
4:15 AM 56.3 °F 48.0 °F 74% 30.15 in 10.0 mi SE 8.1 mph - N/A   Clear
4:35 AM 55.4 °F 47.8 °F 76% 30.15 in 10.0 mi ESE 6.9 mph - N/A   Clear
4:55 AM 54.5 °F 47.5 °F 77% 30.15 in 10.0 mi ESE 8.1 mph - N/A   Clear
5:15 AM 54.9 °F 47.8 °F 77% 30.15 in 10.0 mi SE 10.4 mph - N/A   Clear
5:35 AM 55.2 °F 47.7 °F 76% 30.16 in 10.0 mi SE 9.2 mph - N/A   Clear
5:55 AM 54.5 °F 47.5 °F 77% 30.16 in 10.0 mi SE 8.1 mph - N/A   Clear
6:15 AM 54.5 °F 47.7 °F 78% 30.17 in 10.0 mi SE 11.5 mph - N/A   Clear
6:35 AM 55.4 °F 48.2 °F 77% 30.17 in 10.0 mi SE 6.9 mph - N/A   Clear
6:55 AM 56.1 °F 48.2 °F 75% 30.18 in 10.0 mi ESE 6.9 mph - N/A   Clear
7:15 AM 57.2 °F 48.2 °F 72% 30.18 in 10.0 mi East 6.9 mph - N/A   Clear
7:35 AM 57.6 °F 48.2 °F 71% 30.18 in 10.0 mi East 6.9 mph - N/A   Clear
7:55 AM 58.6 °F 48.6 °F 69% 30.19 in 10.0 mi East 8.1 mph - N/A   Clear
8:15 AM 59.7 °F 49.3 °F 68% 30.19 in 10.0 mi East 4.6 mph - N/A   Clear
8:35 AM 61.3 °F 49.5 °F 65% 30.19 in 10.0 mi East 4.6 mph - N/A   Clear
8:55 AM 63.7 °F 49.6 °F 60% 30.19 in 10.0 mi East 5.8 mph - N/A   Clear
9:15 AM 65.5 °F 50.2 °F 58% 30.18 in 10.0 mi Calm Calm - N/A   Clear
9:35 AM 68.2 °F 50.2 °F 53% 30.18 in 10.0 mi NE 4.6 mph - N/A   Clear
9:55 AM 69.1 °F 50.0 °F 51% 30.18 in 10.0 mi ENE 4.6 mph - N/A   Clear
10:15 AM 70.7 °F 50.0 °F 48% 30.18 in 10.0 mi NE 3.5 mph - N/A   Clear
10:35 AM 72.7 °F 48.6 °F 42% 30.17 in 10.0 mi NW 3.5 mph - N/A   Clear
10:55 AM 74.8 °F 48.0 °F 39% 30.17 in 10.0 mi NNW 5.8 mph - N/A   Clear
11:15 AM 75.6 °F 48.7 °F 39% 30.17 in 10.0 mi West 4.6 mph - N/A   Clear
11:35 AM 77.0 °F 48.7 °F 37% 30.16 in 10.0 mi West 4.6 mph - N/A   Clear
11:55 AM 77.9 °F 49.1 °F 36% 30.15 in 10.0 mi Calm Calm - N/A   Clear
12:15 PM 80.2 °F 49.1 °F 34% 30.15 in 10.0 mi SW 4.6 mph - N/A   Clear
12:35 PM 80.1 °F 48.4 °F 33% 30.14 in 10.0 mi WNW 4.6 mph - N/A   Clear
12:55 PM 81.0 °F 48.4 °F 32% 30.14 in 10.0 mi WNW 6.9 mph - N/A   Clear
1:15 PM 81.3 °F 47.7 °F 31% 30.14 in 10.0 mi NW 5.8 mph - N/A   Clear
1:35 PM 82.6 °F 47.3 °F 29% 30.13 in 10.0 mi NW 6.9 mph - N/A   Clear
1:55 PM 82.8 °F 47.3 °F 29% 30.12 in 10.0 mi NW 5.8 mph - N/A   Clear
2:15 PM 84.4 °F 46.8 °F 27% 30.12 in 10.0 mi West 10.4 mph - N/A   Clear
2:35 PM 84.9 °F 46.4 °F 26% 30.12 in 10.0 mi NNW 3.5 mph - N/A   Clear
2:55 PM 85.3 °F 45.7 °F 25% 30.11 in 10.0 mi West 12.7 mph 16.1 mph N/A   Clear
3:15 PM 86.2 °F 43.0 °F 22% 30.10 in 10.0 mi NW 5.8 mph - N/A   Clear
3:35 PM 87.1 °F 41.5 °F 20% 30.10 in 10.0 mi WNW 9.2 mph 16.1 mph N/A   Clear
3:55 PM 87.4 °F 39.4 °F 18% 30.09 in 10.0 mi NW 8.1 mph 16.1 mph N/A   Clear
4:15 PM 86.9 °F 39.9 °F 19% 30.09 in 10.0 mi NW 8.1 mph - N/A   Clear
4:35 PM 86.9 °F 39.7 °F 19% 30.08 in 10.0 mi WNW 8.1 mph - N/A   Clear
4:55 PM 86.7 °F 42.1 °F 21% 30.08 in 10.0 mi NW 6.9 mph 16.1 mph N/A   Clear
5:15 PM 86.4 °F 42.3 °F 21% 30.07 in 10.0 mi Calm Calm - N/A   Clear
5:35 PM 86.2 °F 45.7 °F 24% 30.07 in 10.0 mi NNW 11.5 mph 16.1 mph N/A   Clear
5:55 PM 85.1 °F 45.7 °F 25% 30.07 in 10.0 mi North 8.1 mph - N/A   Clear
6:15 PM 84.7 °F 46.4 °F 26% 30.07 in 10.0 mi NW 10.4 mph - N/A   Clear
6:35 PM 83.5 °F 46.9 °F 28% 30.07 in 10.0 mi NNW 9.2 mph - N/A   Clear
6:55 PM 82.8 °F 47.3 °F 29% 30.08 in 10.0 mi NW 12.7 mph - N/A   Clear
7:15 PM 81.3 °F 46.4 °F 29% 30.08 in 10.0 mi NW 11.5 mph - N/A   Clear
7:35 PM 79.9 °F 46.0 °F 30% 30.09 in 10.0 mi NW 8.1 mph - N/A   Clear
7:55 PM 78.6 °F 45.3 °F 31% 30.09 in 10.0 mi NNW 5.8 mph - N/A   Clear
8:15 PM 77.0 °F 44.6 °F 32% 30.09 in 10.0 mi Calm Calm - N/A   Clear
8:35 PM 75.6 °F 45.0 °F 34% 30.10 in 10.0 mi SW 5.8 mph - N/A   Clear
8:55 PM 74.7 °F 44.4 °F 34% 30.11 in 10.0 mi WSW 4.6 mph - N/A   Clear
9:15 PM 75.9 °F 45.0 °F 33% 30.12 in 10.0 mi South 3.5 mph - N/A   Clear
9:35 PM 73.9 °F 46.0 °F 37% 30.12 in 10.0 mi NNW 3.5 mph - N/A   Clear
9:55 PM 74.8 °F 47.1 °F 37% 30.12 in 10.0 mi NNW 3.5 mph - N/A   Clear
10:15 PM 72.1 °F 47.3 °F 41% 30.12 in 10.0 mi Calm Calm - N/A   Clear
10:55 PM 70.2 °F 48.2 °F 46% 30.13 in 10.0 mi NW 4.6 mph - N/A   Clear
11:15 PM 69.3 °F 48.4 °F 47% 30.13 in 10.0 mi NNW 4.6 mph - N/A   Clear
11:35 PM 68.2 °F 49.3 °F 51% 30.13 in 10.0 mi North 8.1 mph - N/A   Clear
11:55 PM 68.2 °F 49.5 °F 51% 30.13 in 10.0 mi North 6.9 mph - N/A   Clear